Weather History for Fairbanks, AK

Change the Weather History Date:

Saturday, May 5, 2012

  Actual Average Record
Temperature  
Mean Temperature 43 °F 45 °F  
Max Temperature 55 °F 56 °F 70 °F (1960)
Min Temperature 31 °F 33 °F 11 °F (1945)
Degree Days  
Heating Degree Days 22 20  
Month to date heating degree days 150 106  
Since 1 July heating degree days 13401 13130  
Cooling Degree Days 0 0  
Month to date cooling degree days 0 0  
Year to date cooling degree days 0 0  
Moisture  
Dew Point 30 °F    
Average Humidity 62    
Maximum Humidity 89    
Minimum Humidity 31    
Precipitation  
Precipitation 0.01 in 0.02 in 0.27 in (1941)
Month to date precipitation 0.01 0.08  
Year to date precipitation 1.93 1.64  
Snow  
Snow 0.00 in 0.10 in 2.90 in (2001)
Month to date snowfall T 0.3  
Since 1 July snowfall 57.4 64.4  
Snow Depth 0.00 in    
Sea Level Pressure  
Sea Level Pressure 29.89 in    
Wind  
Wind Speed 3 mph (NNE)    
Max Wind Speed 14 mph    
Max Gust Speed 21 mph    
Visibility 10 miles    
Events Thunderstorm    
T = Trace of Precipitation, MM = Missing Value Source: NWS Daily Summary

Daily Weather History Graph

Daily Weather History Graph

Search for Another Location

Airport:

Trip Planner

Search our weather history database for the weather conditions in past years. The results will help you decide how hot, cold, wet, or windy it might be!

Date:

Astronomy

May. 05, 2012 Rise Set
Actual Time 5:01 AM AKDT 10:36 PM AKDT
Civil Twilight 3:39 AM AKDT 12:01 AM AKDT
Nautical Twilight Sun does not rise Sun does not rise
Astronomical Twilight Sun does not rise Sun does not rise
Moon 11:01 PM AKDT (5/5) 4:36 AM AKDT (5/5)
Length of Visible Light 20h 21m
Length of Day
17h 35m
Full, 100% of the Moon is Illuminated
May 5
Full
May 5
Full
May 12
Last Quarter
May 20
New
May 28
First Quarter

Hourly Weather History & Observations

Time (AKDT) Temp. Windchill Dew Point Humidity Pressure Visibility Wind Dir Wind Speed Gust Speed Precip Events Conditions
12:53 AM 37.9 °F - 30.9 °F 76% 29.86 in 10.0 mi Calm Calm - N/A   Mostly Cloudy
1:53 AM 37.9 °F 35.5 °F 30.9 °F 76% 29.86 in 10.0 mi NNE 3.5 mph - N/A   Mostly Cloudy
2:53 AM 34.0 °F 31.0 °F 28.9 °F 82% 29.87 in 10.0 mi NNE 3.5 mph - N/A   Mostly Cloudy
3:53 AM 34.0 °F - 28.9 °F 82% 29.88 in 10.0 mi Calm Calm - N/A   Mostly Cloudy
4:53 AM 32.0 °F 24.8 °F 28.0 °F 85% 29.88 in 10.0 mi NE 8.1 mph - N/A   Mostly Cloudy
5:53 AM 30.9 °F 27.5 °F 28.0 °F 89% 29.90 in 10.0 mi ENE 3.5 mph - N/A   Scattered Clouds
6:53 AM 33.1 °F - 28.9 °F 85% 29.90 in 10.0 mi Calm Calm - N/A   Scattered Clouds
7:53 AM 36.0 °F - 30.0 °F 79% 29.91 in 10.0 mi Calm Calm - N/A   Mostly Cloudy
8:53 AM 39.0 °F 36.8 °F 30.0 °F 70% 29.91 in 10.0 mi NNE 3.5 mph - N/A   Mostly Cloudy
9:53 AM 42.1 °F - 30.0 °F 62% 29.91 in 10.0 mi Calm Calm - N/A   Mostly Cloudy
10:53 AM 46.0 °F - 30.0 °F 54% 29.91 in 10.0 mi Calm Calm - N/A   Mostly Cloudy
11:53 AM 50.0 °F - 28.9 °F 44% 29.91 in 10.0 mi Calm Calm - N/A   Mostly Cloudy
12:53 PM 52.0 °F - 27.0 °F 38% 29.89 in 10.0 mi Calm Calm - N/A   Mostly Cloudy
1:53 PM 54.0 °F - 24.1 °F 31% 29.87 in 10.0 mi Variable 6.9 mph - N/A   Mostly Cloudy
2:53 PM 51.1 °F - 27.0 °F 39% 29.88 in 10.0 mi Variable 5.8 mph 20.7 mph N/A   Mostly Cloudy
3:53 PM 51.1 °F - 30.9 °F 46% 29.89 in 10.0 mi NNE 6.9 mph - N/A   Mostly Cloudy
4:53 PM 50.0 °F - 32.0 °F 50% 29.88 in 10.0 mi West 8.1 mph - N/A   Mostly Cloudy
5:53 PM 48.9 °F - 30.0 °F 48% 29.88 in 10.0 mi Variable 3.5 mph - 0.01 in   Mostly Cloudy
5:59 PM 48.2 °F - 28.4 °F 46% 29.86 in 10.0 mi Calm Calm - N/A Thunderstorm Thunderstorm
6:18 PM 50.0 °F - 28.4 °F 43% 29.86 in 10.0 mi Calm Calm - N/A   Mostly Cloudy
6:41 PM 48.2 °F - 33.8 °F 58% 29.86 in 10.0 mi NE 13.8 mph - N/A   Mostly Cloudy
6:53 PM 48.0 °F - 35.1 °F 61% 29.89 in 10.0 mi ENE 13.8 mph - N/A   Mostly Cloudy
7:53 PM 46.0 °F 40.6 °F 34.0 °F 63% 29.90 in 10.0 mi NNE 11.5 mph - N/A   Mostly Cloudy
8:53 PM 44.1 °F 38.6 °F 35.1 °F 71% 29.91 in 10.0 mi NNE 10.4 mph - N/A   Mostly Cloudy
9:53 PM 43.0 °F 38.2 °F 34.0 °F 71% 29.91 in 10.0 mi North 8.1 mph - N/A   Mostly Cloudy
10:53 PM 41.0 °F 35.8 °F 34.0 °F 76% 29.90 in 10.0 mi North 8.1 mph - N/A   Scattered Clouds
11:53 PM 39.0 °F 34.0 °F 34.0 °F 82% 29.89 in 10.0 mi North 6.9 mph - N/A   Scattered Clouds